Regional Weather Roundup
Issued by NWS Sterling, VA

Home | Current Version | Previous Version | Graphics & Text | Print | Product List | Glossary On
Versions: 1 2 3 4 5 6 7 8 9 10 11 12 13 14 15 16 17 18 19 20 21 22 23 24 25 26 27 28 29 30 31 32 33 34 35 36 37 38 39 40 41 42 43 44 45 46 47 48 49 50
000
ASUS41 KLWX 270710
RWRLWX

REGIONAL WEATHER ROUNDUP
NATIONAL WEATHER SERVICE BALTIMORE MD/WASHINGTON DC
300 AM EDT WED AUG 27 2014

Note: "FAIR" indicates few or no clouds below 12,000 feet
with no significant weather and/or obstructions to visibility.
 TC=TEMPERATURE CELSIUS

 * =Non NWS site. Station does not report precipitation (e.g. rain,
    snow, etc.), thunder, or fog.

DCZ001-MDZ009-015-VAZ040>042-051-053>054-270800-
WASHINGTON METRO
  /KDAA//-FT BELVOIR

CITY           SKY/WX    TMP DP  RH WIND       PRES   REMARKS
WASHINGTON NAT PTCLDY    72  65  78 CALM      30.06F
DULLES         CLEAR     63  61  93 CALM      30.07F
ANDREWS AFB    CLEAR     63  63  99 CALM      30.06S
QUANTICO       CLEAR     67  64  90 NW6       30.06F
COLLEGE PARK*  CLEAR     64  63  94 CALM      30.05F
LEESBURG*      CLEAR     64  64 100 CALM      30.07F
MANASSAS*      CLOUDY    63  63 100 CALM      30.07S VSB<1/4
GAITHERSBURG*  CLEAR     63  61  94 CALM      30.11S

$$

MDZ006>007-011-014-270800-
BALTIMORE METRO

CITY           SKY/WX    TMP DP  RH WIND       PRES   REMARKS
BWI AIRPORT    CLEAR     64  62  93 CALM      30.05F
MD SCIENCE CTR   N/A     73  64  73 MISG      30.06F
MARTIN STATE   CLEAR     68  66  94 CALM      30.07S
ANNAPOLIS      CLEAR     70  65  84 CALM      30.05S
FORT MEADE*    CLEAR     59  57  94 CALM      30.08S

$$

MDZ012-015-019>023-270800-
MARYLAND EASTERN SHORE

CITY           SKY/WX    TMP DP  RH WIND       PRES   REMARKS
OCEAN CITY     FOG       56  56 100 CALM      30.05F VSB 1
SALISBURY      FOG       61  57  88 CALM      30.06R VSB 1/2
BAY BRIDGE AP*   N/A     68  63  83 CALM      30.05S
CAMBRIDGE*     CLEAR     61  59  94 CALM      30.05S
EASTON*        CLEAR     63  63 100 CALM      30.09S

$$

MDZ017>025-270800-
SOUTHERN MARYLAND

CITY           SKY/WX    TMP DP  RH WIND       PRES   REMARKS
PATUXENT RIVER CLEAR     60  58  92 SW3       30.04F
ST INIGOES     CLEAR     60  56  86 E3        30.04F
LEONARDTOWN*   CLEAR     61  59  94 CALM      30.07S

$$

MDZ003>005-270800-
NORTH CENTRAL MARYLAND

CITY           SKY/WX    TMP DP  RH WIND       PRES   REMARKS
FREDERICK*     PTCLDY   N/A N/A N/A CALM      30.09F FOG
HAGERSTOWN APT CLEAR     64  60  87 CALM      30.08S
WESTMINSTER*   NOT AVBL

$$

MDZ501>502-270800-
WESTERN MARYLAND

CITY           SKY/WX    TMP DP  RH WIND       PRES   REMARKS
OAKLAND*       CLEAR     63  52  67 SW6       30.18S
CUMBERLAND*    CLEAR     61  55  82 CALM      30.13F

$$

VAZ025>031-270800-
SHENANDOAH VALLEY

CITY           SKY/WX    TMP DP  RH WIND       PRES   REMARKS
WINCHESTER*    CLEAR     63  59  88 SW3       30.08S
STAUNTON*      PTCLDY    55  53  91 CALM      30.13F FOG

$$

WVZ021-048>050-054>055-270800-
EASTERN WEST VIRGINIA PANHANDLE

CITY           SKY/WX    TMP DP  RH WIND       PRES   REMARKS
MARTINSBURG    CLEAR     61  57  87 CALM      30.08F
PETERSBURG*    NOT AVBL

$$

VAZ036>039-050-270800-
CENTRAL FOOTHILLS

CITY           SKY/WX    TMP DP  RH WIND       PRES   REMARKS
CHARLOTTESVILL CLEAR     60  58  92 CALM      30.08S
ORANGE*        CLEAR     59  57  94 CALM      30.09S

$$

VAZ055>057-270800-
NORTH AND CENTRAL PIEDMONT

CITY           SKY/WX    TMP DP  RH WIND       PRES   REMARKS
FREDERICKSBRG* CLEAR     63  63 100 CALM      30.05F
STAFFORD*      CLEAR     61  61 100 NW3       30.10S FOG

$$

NCZ024-NYZ072-PAZ021-071-VAZ022-071-270800-
OTHER REGIONAL OBSERVATIONS

CITY           SKY/WX    TMP DP  RH WIND       PRES   REMARKS
NEW YORK CITY  CLEAR     70  59  68 VRB6      30.07F
PHILADELPHIA   CLEAR     70  63  78 SW5       30.06F
PITTSBURGH     CLEAR     68  63  84 CALM      30.10S
ROANOKE        CLEAR     59  57  93 CALM      30.14F
RICHMOND       CLEAR     63  59  87 CALM      30.06F
RALEIGH        PTCLDY    63  59  87 CALM      30.07S

$$

ANZ530>537-270800-
MARINE OBSERVATIONS

STATION/POSITION TIME  TEMP    WIND        PRES
                       AIR SEA DIR/SP/G
                 (UTC) (F)     (DEG/KT/KT) (MB)
THOMAS PT LIGHT  0700   72 78  250/  6/  7 1018.6S
BALT KEY BRIDGE  0700   77     190/  3/  4 1017.4F
COVE POINT       0700   71     220/  3/  4 1017.4F
LEWISETTA        0700   68 77  250/  3/  3 1017.0F
SOLOMONS ISLAND  0700      80                N/A
PINEY POINT      0700          270/  2/  4   N/A

$$



USA.gov is the U.S. government's official web portal to all federal, state and local government web resources and services.